IZ2OSD Weather Reports


time (UTC)temp
F
wind
direction
speed
knots
gust
knots
rain 1hr
in
rain 24hr
in
rain mn
in
humidity
%
barometer
mb
20260510091920 58 315 0.0 1.7 0.07 0.09 0.09 94 1013.5
20260510090915 58 315 4.3 7.0 0.05 0.08 0.08 93 1013.7
20260510085913 59 315 0.9 1.7 0.04 0.07 0.07 92 1013.4
20260510084909 59 0.0 0.9 0.02 0.04 0.04 91 1013.5
20260510083909 59 315 1.7 1.7 0.03 0.04 0.04 90 1013.5
20260510082903 60 0.0 0.0 0.02 0.03 0.03 90 1013.6
20260510081901 60 0.0 0.0 0.01 0.02 0.02 90 1013.5
20260510080856 60 0.0 0.0 0.01 0.02 0.02 90 1013.4
20260510075854 59 0.0 0.0 0.01 0.02 0.02 90 1013.5
20260510074850 59 0.0 0.0 0.01 0.02 0.02 89 1013.5
20260510073846 60 0.0 0.0 0.00 0.01 0.01 88 1013.4
20260510072843 60 0.0 0.0 0.00 0.01 0.01 88 1013.4
20260510071837 60 0.0 0.0 0.00 0.01 0.01 87 1013.0
20260510070834 60 0.0 0.0 0.00 0.01 0.01 88 1013.0
20260510065832 60 0.0 0.0 0.00 0.01 0.01 88 1012.9
20260510064827 60 0.0 0.0 0.00 0.01 0.01 87 1012.9
20260510063824 60 0.0 0.0 0.00 0.01 0.01 87 1012.9
20260510062841 60 0.0 0.0 0.01 0.01 0.01 86 1012.8
20260510061817 60 0.0 0.0 0.01 0.01 0.01 86 1012.8
20260510060807 59 0.0 0.0 0.01 0.01 0.01 86 1012.9
20260510055803 59 315 0.9 1.7 0.01 0.01 0.01 85 1012.7
20260510054800 59 292 0.0 1.7 0.01 0.01 0.01 85 1012.6
20260510053757 60 292 0.0 0.9 0.01 0.01 0.01 82 1012.8
20260510052754 60 292 0.0 0.9 0.00 0.00 0.00 80 1012.4
20260510051750 61 292 0.0 0.9 0.00 0.00 0.00 77 1012.3
20260510050740 61 0.0 0.0 0.00 0.00 0.00 76 1012.0
20260510045730 61 0.0 0.0 0.00 0.00 0.00 76 1011.9
20260510044726 61 0.0 0.0 0.00 0.00 0.00 76 1011.9
20260510043716 60 0.0 0.0 0.00 0.00 0.00 77 1011.8
20260510042708 60 0.0 0.0 0.00 0.00 0.00 77 1011.7
20260510041703 60 292 0.0 0.9 0.00 0.00 0.00 77 1011.6
20260510040658 60 292 0.0 0.9 0.00 0.00 0.00 77 1011.7
20260510035714 60 292 0.9 1.7 0.00 0.00 0.00 78 1011.9
20260510034651 61 0.0 0.0 0.00 0.00 0.00 78 1011.8
20260510033642 61 0.0 0.9 0.00 0.00 0.00 76 1011.9
20260510032638 62 0.0 0.0 0.00 0.00 0.00 76 1011.9
20260510031635 62 0.0 0.0 0.00 0.00 0.00 71 1012.1
20260510030633 62 0.0 0.0 0.00 0.00 0.00 70 1012.3
20260510025627 62 0.0 0.0 0.00 0.00 0.00 69 1012.1
20260510024624 62 0.0 0.0 0.00 0.00 0.00 68 1012.2
20260510023621 62 0.0 0.0 0.00 0.00 0.00 68 1012.2
20260510022617 62 292 0.9 1.7 0.00 0.00 0.00 68 1012.4
20260510021607 62 292 0.0 1.7 0.00 0.00 0.00 68 1012.4
20260510020604 62 292 1.7 2.6 0.00 0.00 0.00 68 1012.5
20260510015600 62 292 0.9 1.7 0.00 0.00 0.00 68 1012.9
20260510014638 62 292 0.9 2.6 0.00 0.00 0.00 67 1012.8
20260510013553 62 315 0.9 1.7 0.00 0.00 0.00 67 1012.8
20260510012551 62 292 0.0 1.7 0.00 0.00 0.00 67 1012.9
20260510011541 62 292 1.7 2.6 0.00 0.00 0.00 68 1012.8
20260510010537 62 292 0.0 1.7 0.00 0.00 0.00 68 1012.9
20260510005533 62 292 0.9 1.7 0.00 0.00 0.00 68 1013.4
20260510004529 62 0.0 0.0 0.00 0.00 0.00 68 1013.2
20260510003539 62 315 1.7 3.5 0.00 0.00 0.00 68 1013.2
20260510002515 63 292 1.7 2.6 0.00 0.00 0.00 68 1013.0
20260510001511 63 315 0.9 2.6 0.00 0.00 0.00 68 1013.5
20260510000508 63 315 0.9 2.6 0.00 0.00 0.00 68 1013.4
20260509235504 63 292 1.7 3.5 0.00 0.00 0.00 67 1013.9
20260509234503 63 292 1.7 2.6 0.00 0.00 0.00 68 1013.7
20260509234000 63 292 2.6 3.5 0.00 0.00 0.00 68 1013.8
20260509232958 62 315 1.7 2.6 0.00 0.00 0.00 69 1013.8
20260509231953 62 315 0.9 2.6 0.00 0.00 0.00 69 1013.7
20260509230950 62 315 2.6 3.5 0.00 0.00 0.00 70 1013.7
20260509225946 62 292 0.9 2.6 0.00 0.00 0.00 70 1013.8
20260509224943 62 292 0.0 0.9 0.00 0.00 0.00 71 1013.6
20260509223941 62 292 0.9 1.7 0.00 0.00 0.00 70 1013.8
20260509222930 62 0.0 0.9 0.00 0.00 0.00 70 1013.8
20260509222007 62 0.0 0.0 0.00 0.00 0.00 69 1013.9
20260509221042 62 0.0 0.0 0.00 0.00 0.00 69 1013.8
20260509215940 63 0.0 0.0 0.00 0.00 0.00 68 1013.9
20260509214915 63 0.0 0.0 0.00 0.00 0.00 68 1013.8
20260509213906 63 0.0 0.0 0.00 0.00 0.00 68 1013.7
20260509212903 64 0.0 0.0 0.00 0.00 0.00 66 1013.7
20260509211856 64 0.0 0.0 0.00 0.00 0.00 66 1013.6
20260509210853 63 270 0.9 1.7 0.00 0.00 0.00 66 1013.7
20260509205850 64 0.0 0.9 0.00 0.00 0.00 66 1013.4
20260509204841 63 0.0 0.0 0.00 0.00 0.00 68 1013.6
20260509203838 64 0.0 0.0 0.00 0.00 0.00 67 1013.5
20260509202829 65 0.0 0.0 0.00 0.00 0.00 65 1013.5
20260509201824 65 0.0 0.0 0.00 0.00 0.00 65 1013.4
20260509200820 66 0.0 0.0 0.00 0.00 0.00 65 1013.3
20260509195818 66 0.0 0.0 0.00 0.00 0.00 65 1013.3
20260509194814 66 0.0 0.0 0.00 0.00 0.00 63 1013.0
20260509193811 67 0.0 0.0 0.00 0.00 0.00 64 1013.0
20260509192808 68 0.0 0.0 0.00 0.00 0.00 63 1012.9
20260509191803 68 0.0 0.0 0.00 0.00 0.00 60 1012.8
20260509190754 69 0.0 0.0 0.00 0.00 0.00 58 1012.6
20260509185750 70 0.0 0.0 0.00 0.00 0.00 52 1012.7
20260509184747 70 0.0 0.0 0.00 0.00 0.00 52 1012.7
20260509183743 70 0.0 0.0 0.00 0.00 0.00 52 1012.8
20260509182739 71 0.0 0.0 0.00 0.00 0.00 50 1012.7
20260509181729 71 0.0 0.0 0.00 0.00 0.00 50 1012.9
20260509180726 72 0.0 0.0 0.00 0.00 0.00 49 1012.7
20260509175737 73 0.0 0.0 0.00 0.00 0.00 47 1012.8
20260509174714 73 0.0 0.0 0.00 0.00 0.00 46 1012.4
20260509173729 74 0.0 0.0 0.00 0.00 0.00 45 1012.6
20260509172726 74 0.0 0.0 0.00 0.00 0.00 43 1012.7
20260509171656 74 0.0 0.0 0.00 0.00 0.00 43 1012.9
20260509170713 74 0.0 0.9 0.00 0.00 0.00 44 1012.8
20260509165648 74 0.0 0.0 0.00 0.00 0.00 44 1012.7
20260509164728 74 0.0 0.9 0.00 0.00 0.00 43 1012.8
20260509163641 75 292 0.0 0.9 0.00 0.00 0.00 42 1013.0
20260509162634 76 0.0 0.9 0.00 0.00 0.00 42 1012.9
20260509161630 75 0.0 0.0 0.00 0.00 0.00 41 1012.9
20260509160624 75 0.0 0.9 0.00 0.00 0.00 41 1013.2
20260509155621 75 315 1.7 2.6 0.00 0.00 0.00 41 1013.2
20260509154620 76 315 0.0 0.9 0.00 0.00 0.00 40 1013.0
20260509153608 75 292 0.9 1.7 0.00 0.00 0.00 41 1013.2
20260509152604 75 315 0.0 1.7 0.00 0.00 0.00 41 1013.2
20260509151602 76 0.0 0.9 0.00 0.00 0.00 41 1013.2
20260509150557 76 315 1.7 1.7 0.00 0.00 0.00 43 1013.3
20260509145553 76 112 0.9 1.7 0.00 0.00 0.00 43 1013.3
20260509144550 76 112 0.9 2.6 0.00 0.00 0.00 45 1013.3
20260509143541 73 315 2.6 5.2 0.00 0.00 0.00 45 1013.3
20260509142532 76 292 0.9 1.7 0.00 0.00 0.00 44 1013.4
20260509141527 74 315 1.7 3.5 0.00 0.00 0.00 46 1013.6
20260509140523 75 315 0.9 0.9 0.00 0.00 0.00 45 1013.6
20260509135518 76 292 0.0 1.7 0.00 0.00 0.00 46 1013.7
20260509134515 76 315 1.7 1.7 0.00 0.00 0.00 45 1014.1
20260509133506 76 292 1.7 2.6 0.00 0.00 0.00 44 1014.0
20260509132505 75 0 0.9 1.7 0.00 0.00 0.00 46 1014.3
20260509131459 75 292 0.9 2.6 0.00 0.00 0.00 46 1014.4
20260509130454 77 0.0 0.0 0.00 0.00 0.00 43 1014.3
20260509125451 77 292 0.0 1.7 0.00 0.00 0.00 43 1014.4
20260509124447 76 315 1.7 2.6 0.00 0.00 0.00 43 1014.6
20260509123444 75 315 2.6 3.5 0.00 0.00 0.00 45 1014.4
20260509122441 77 270 0.9 2.6 0.00 0.00 0.00 43 1014.3
20260509121439 77 0 0.0 0.9 0.00 0.00 0.00 41 1014.8
20260509120428 77 0.0 0.9 0.00 0.00 0.00 37 1014.7
20260509115423 76 90 0.9 5.2 0.00 0.00 0.00 41 1014.7
20260509114419 76 292 1.7 3.5 0.00 0.00 0.00 41 1014.7
20260509113417 74 112 0.9 1.7 0.00 0.00 0.00 42 1014.7
20260509112427 73 135 1.7 2.6 0.00 0.00 0.00 46 1014.8
20260509111404 76 112 1.7 3.5 0.00 0.00 0.00 42 1014.8
20260509110354 76 315 0.0 1.7 0.00 0.00 0.00 45 1015.2
20260509105350 75 0.0 0.9 0.00 0.00 0.00 46 1015.2
20260509104346 74 112 0.9 1.7 0.00 0.00 0.00 46 1015.6
20260509103343 76 135 0.9 1.7 0.00 0.00 0.00 42 1015.9
20260509102339 75 292 0.9 1.7 0.00 0.00 0.00 44 1015.8
20260509101334 76 112 0.9 1.7 0.00 0.00 0.00 42 1015.9
20260509100331 74 202 0.0 0.9 0.00 0.00 0.00 46 1015.8
20260509095330 73 270 0.9 1.7 0.00 0.00 0.00 47 1016.0
20260509094326 75 0.0 0.9 0.00 0.00 0.00 48 1016.3